Terminal Aerodrome Forecast
Issued by NWS

Home | Current Version | Previous Version | Text Only | Print | Product List | Glossary On
Versions: 1 2 3 4 5 6 7 8 9 10 11 12
774
FTPA31 PHFO 261738
TAFHJR
TAF
PHJR 261738Z 2618/2718 05006KT P6SM VCSH FEW045 OVC060
     FM262000 10008G14KT P6SM BKN045
     FM270400 05004KT P6SM SCT045=

USA.gov is the U.S. government's official web portal to all federal, state and local government web resources and services.